Tracking 19485 objects as of 21-Jan-2019
HD Live streaming from Space Station
objects crossing your sky now

CHEFSAT

Track CHEFSAT now!
10-day predictions


NORAD ID: 43044
Int'l Code: 2017-071H
Perigee: 444.0 km
Apogee: 450.4 km
Inclination: 51.6 °
Period: 93.4 minutes
Semi major axis: 6818 km
RCS: Unknown
Launch date: November 12, 2017
Source: United States (US)
Launch site: WALLOPS ISLAND (WLPIS)
aabbcc
Your satellite tracking list
Your tracking list is empty




NASA's NSSDC Master Catalog

Two Line Element Set (TLE):
1 43044U 17071H   19020.91614420 +.00003739 +00000-0 +95644-4 0  9994
2 43044 051.6398 056.9764 0004728 343.2637 016.8192 15.42042833063159
Source of the keplerian elements: AFSPC